KB4SHP Weather Reports


Display with metric or nautical units.
time (UTC)temp
F
wind
direction
speed
MPH
gust
MPH
rain 1hr
in
rain 24hr
in
rain mn
in
humidity
%
barometer
mb
20260505034503 63 201 0.0 1.0 0.00 0.00 0.00 50 1015.0
20260505033004 63 203 0.0 1.0 0.00 0.00 0.00 50 1015.2
20260505031503 64 204 0.0 0.0 0.00 0.00 0.00 49 1014.9
20260505030003 64 217 0.0 1.0 0.00 0.00 0.00 48 1014.9
20260505024504 63 212 0.0 1.0 0.00 0.00 0.00 51 1015.0
20260505021504 61 195 0.0 0.0 0.00 0.00 0.00 60 1014.9
20260505020006 62 195 0.0 0.0 0.00 0.00 0.00 57 1014.8
20260505014505 63 195 0.0 0.0 0.00 0.00 0.00 56 1014.7
20260505013004 65 195 0.0 0.0 0.00 0.00 0.00 54 1014.5
20260505004503 67 215 0.0 1.0 0.00 0.00 0.00 50 1014.0
20260505003005 69 215 0.0 1.0 0.00 0.00 0.00 47 1013.9
20260505001504 70 207 0.0 1.0 0.00 0.00 0.00 46 1014.0
20260504234505 74 203 0.0 2.0 0.00 0.00 0.00 39 1013.7
20260504233005 75 207 0.0 2.0 0.00 0.00 0.00 39 1013.6
20260504231505 76 219 1.0 4.0 0.00 0.00 0.00 37 1013.3
20260504230005 76 204 2.0 4.0 0.00 0.00 0.00 37 1013.3
20260504224503 78 162 1.0 3.0 0.00 0.00 0.00 36 1013.4
20260504223005 78 175 1.0 3.0 0.00 0.00 0.00 36 1013.5
20260504221504 77 286 2.0 5.0 0.00 0.00 0.00 37 1013.6
20260504213003 78 226 2.0 4.0 0.00 0.00 0.00 37 1013.5
20260504211503 77 156 2.0 5.0 0.00 0.00 0.00 38 1013.4
20260504210006 77 214 1.0 5.0 0.00 0.00 0.00 39 1013.5
20260504200003 77 224 2.0 6.0 0.00 0.00 0.00 39 1013.8
20260504194503 77 252 2.0 9.0 0.00 0.00 0.00 38 1014.1
20260504193003 76 210 2.0 6.0 0.00 0.00 0.00 38 1014.2
20260504191503 76 288 2.0 7.0 0.00 0.00 0.00 39 1014.6
20260504190003 76 173 2.0 8.0 0.00 0.00 0.00 38 1014.9
20260504184503 75 234 2.0 6.0 0.00 0.00 0.00 38 1015.1
20260504181503 74 281 3.0 9.0 0.00 0.00 0.00 41 1015.2
20260504180004 74 233 2.0 7.0 0.00 0.00 0.00 39 1015.2
20260504174504 73 241 2.0 8.0 0.00 0.00 0.00 38 1015.4
20260504173003 73 219 2.0 7.0 0.00 0.00 0.00 40 1015.5
20260504171503 72 22 2.0 9.0 0.00 0.00 0.00 40 1015.8
20260504081503 36 194 0.0 0.0 0.00 0.00 0.00 90 1017.6
20260504050004 39 194 0.0 0.0 0.00 0.00 0.00 87 1017.8
20260504044504 39 194 0.0 0.0 0.00 0.00 0.00 86 1017.8
20260504043004 39 194 0.0 0.0 0.00 0.00 0.00 86 1017.8
20260504041504 40 194 0.0 0.0 0.00 0.00 0.00 85 1017.7
20260504040007 40 194 0.0 0.0 0.00 0.00 0.00 84 1017.6